"TOA5","MOW","CPU:UNC_MeetingWaters","DataHourly"
"TIMESTAMP","SondeTempC","SpCond","DOSat","DOmg","pH","Turb","BattVolt_Min"
"TS","","","","","","",""
"","Smp","Smp","Smp","Smp","Smp","Smp","Min"
"2003-12-01 00:00:00",9.38000011444,0.156000003219,92.9000015259,10.6300001144,7.65000009537,3.70000004768,12.3900003433
"2003-12-01 01:00:00",9.13000011444,0.155000001192,93.0999984741,10.7299995422,7.63000011444,3.59999990463,12.3699998856
"2003-12-01 02:00:00",8.88000011444,0.153999999166,93.4000015259,10.8199996948,7.65999984741,3.59999990463,12.3599996567
"2003-12-01 03:00:00",8.64999961853,0.152999997139,93.5999984741,10.8999996185,7.61999988556,4.80000019073,12.3400001526
"2003-12-01 04:00:00",8.46000003815,0.152999997139,93.5,10.9499998093,7.67000007629,4.0,12.3199996948
"2003-12-01 05:00:00",8.28999996185,0.151999995112,93.3000030518,10.9600000381,7.67000007629,6.40000009537,12.3000001907
"2003-12-01 06:00:00",8.14999961853,0.152999997139,93.0,10.970000267,7.65999984741,3.40000009537,12.2899999619
"2003-12-01 07:00:00",8.02000045776,0.152999997139,92.6999969482,10.970000267,7.63000011444,3.09999990463,12.2700004578
"2003-12-01 08:00:00",7.96000003815,0.151999995112,92.8000030518,11.0,7.63000011444,3.29999995232,12.2600002289
"2003-12-01 09:00:00",8.10999965668,0.280999988317,93.1999969482,11.0,7.65999984741,3.29999995232,12.9099998474
"2003-12-01 10:00:00",8.93999958038,0.279000014067,94.9000015259,10.970000267,7.63999986649,4.90000009537,13.1300001144
"2003-12-01 11:00:00",9.65999984741,0.273000001907,94.8000030518,10.7700004578,7.65000009537,3.29999995232,12.7100000381
"2003-12-01 12:00:00",10.8299999237,0.270999997854,95.4000015259,10.5600004196,7.65999984741,7.19999980927,13.4200000763
"2003-12-01 13:00:00",11.3999996185,0.17499999702,94.4000015259,10.3100004196,7.63999986649,10.6000003815,12.7700004578
"2003-12-01 14:00:00",11.75,0.222000002861,93.3000030518,10.1099996567,7.63000011444,11.8000001907,12.6899995804
"2003-12-01 15:00:00",11.970000267,0.16099999845,92.8000030518,10.0100002289,7.61999988556,13.6999998093,12.7600002289
"2003-12-01 16:00:00",11.9799995422,0.17499999702,91.8000030518,9.89000034332,7.63000011444,12.6000003815,12.6999998093
"2003-12-01 17:00:00",11.8800001144,0.238999992609,90.0999984741,9.72999954224,7.59999990463,7.69999980927,12.5799999237
"2003-12-01 18:00:00",11.6700000763,0.342999994755,89.1999969482,9.67000007629,7.63000011444,5.80000019073,12.5500001907
"2003-12-01 19:00:00",11.4899997711,0.467000007629,88.8000030518,9.67000007629,7.65999984741,8.89999961853,12.5200004578
"2003-12-01 20:00:00",11.2399997711,0.33599999547,89.0,9.75,7.65999984741,11.5,12.5
"2003-12-01 21:00:00",10.9499998093,0.25799998641,90.0,9.93000030518,7.65000009537,15.3000001907,12.4799995422
"2003-12-01 22:00:00",10.5900001526,0.224000006914,90.6999969482,10.0900001526,7.65000009537,12.8000001907,12.4600000381
"2003-12-01 23:00:00",10.1999998093,0.20000000298,91.5,10.2700004578,7.65000009537,8.5,12.4300003052
"2003-12-02 00:00:00",9.89999961853,0.187999993563,91.9000015259,10.3900003433,7.63000011444,8.69999980927,12.4300003052
"2003-12-02 01:00:00",9.57999992371,0.181999996305,92.1999969482,10.5,7.63999986649,8.30000019073,12.3999996185
"2003-12-02 02:00:00",9.27999973297,0.178000003099,92.5,10.6099996567,7.63000011444,7.69999980927,12.3800001144
"2003-12-02 03:00:00",8.96000003815,0.175999999046,92.6999969482,10.7299995422,7.65000009537,6.0,12.3500003815
"2003-12-02 04:00:00",8.64999961853,0.172000005841,93.0999984741,10.8500003815,7.65999984741,4.90000009537,12.3299999237
"2003-12-02 05:00:00",8.34000015259,0.170000001788,93.5999984741,10.9799995422,7.63000011444,4.19999980927,12.3000001907
"2003-12-02 06:00:00",8.06999969482,0.168999999762,93.8000030518,11.0900001526,7.65999984741,4.0,12.2700004578
"2003-12-02 07:00:00",7.80000019073,0.168999999762,94.1999969482,11.2100000381,7.65999984741,3.70000004768,12.2399997711
"2003-12-02 08:00:00",7.48999977112,0.168999999762,94.8000030518,11.3599996567,7.69000005722,3.90000009537,12.2299995422
"2003-12-02 09:00:00",7.42000007629,0.166999995708,95.5999984741,11.4799995422,7.67000007629,3.5,12.6899995804
"2003-12-02 10:00:00",7.69000005722,0.301999986172,96.5,11.5100002289,7.71000003815,2.79999995232,13.3000001907
"2003-12-02 11:00:00",8.15999984741,0.17499999702,97.5,11.5,7.69999980927,3.09999990463,12.7299995422
"2003-12-02 12:00:00",8.77999973297,0.16099999845,98.1999969482,11.4099998474,7.73000001907,2.79999995232,13.5900001526
"2003-12-02 13:00:00",9.26000022888,0.158999994397,98.0999984741,11.2700004578,7.73000001907,2.59999990463,12.8699998856
"2003-12-02 14:00:00",9.36999988556,0.159999996424,97.0999984741,11.1199998856,7.71999979019,2.59999990463,12.6800003052
"2003-12-02 15:00:00",9.46000003815,0.159999996424,96.5,11.0200004578,7.71999979019,3.20000004768,12.6199998856
"2003-12-02 16:00:00",9.39999961853,0.163000002503,95.6999969482,10.9600000381,7.71999979019,3.20000004768,12.6800003052
"2003-12-02 17:00:00",9.22000026703,0.159999996424,95.0,10.9099998474,7.71000003815,3.29999995232,12.5699996948
"2003-12-02 18:00:00",8.96000003815,0.0430000014603,94.4000015259,10.9200000763,7.73000001907,3.29999995232,12.529999733
"2003-12-02 19:00:00",8.71000003815,0.0930000022054,94.0,10.9399995804,7.71000003815,3.0,12.5
"2003-12-02 20:00:00",8.39000034332,0.146999999881,94.0,11.029999733,7.71000003815,3.0,12.4600000381
"2003-12-02 21:00:00",8.22999954224,0.0430000014603,94.1999969482,11.0900001526,7.71000003815,3.09999990463,12.4399995804
"2003-12-02 22:00:00",7.98999977112,0.0309999994934,94.1999969482,11.1599998474,7.71000003815,3.29999995232,12.4200000763
"2003-12-02 23:00:00",7.73000001907,0.0289999991655,94.4000015259,11.25,7.71000003815,3.29999995232,12.3999996185
"2003-12-03 00:00:00",7.48999977112,0.0130000002682,94.5999984741,11.3400001526,7.71999979019,3.59999990463,12.3800001144
"2003-12-03 01:00:00",7.25,0.00999999977648,94.5999984741,11.4099998474,7.71000003815,4.19999980927,12.3599996567
"2003-12-03 02:00:00",7.03999996185,0.00700000021607,94.5,11.4600000381,7.71000003815,5.0,12.3400001526
"2003-12-03 03:00:00",6.88000011444,0.00899999961257,95.4000015259,11.6199998856,7.71000003815,4.19999980927,12.3100004196
"2003-12-03 04:00:00",6.80999994278,0.0250000003725,95.5999984741,11.6599998474,7.71000003815,3.59999990463,12.2899999619
"2003-12-03 05:00:00",6.84000015259,0.326999992132,95.5999984741,11.6400003433,7.71000003815,5.69999980927,12.25
"2003-12-03 06:00:00",7.01000022888,0.321000009775,95.6999969482,11.6000003815,7.71999979019,3.59999990463,12.2299995422
"2003-12-03 07:00:00",7.32000017166,0.284000009298,95.3000030518,11.470000267,7.78000020981,2.40000009537,12.2100000381
"2003-12-03 08:00:00",7.71000003815,0.186000004411,95.8000030518,11.4200000763,7.76000022888,2.29999995232,12.2100000381
"2003-12-03 09:00:00",7.65999984741,0.138999998569,96.5,11.5200004578,7.73000001907,1.60000002384,12.529999733
"2003-12-03 10:00:00",7.67999982834,0.0939999967813,97.1999969482,11.6000003815,7.71000003815,1.60000002384,12.7399997711
"2003-12-03 11:00:00",7.75,0.0240000002086,97.9000015259,11.6700000763,7.71999979019,1.20000004768,13.0399999619
"2003-12-03 12:00:00",7.98000001907,0.143000006676,98.5999984741,11.6700000763,7.69000005722,1.70000004768,13.220000267
"2003-12-03 13:00:00",8.21000003815,0.15000000596,99.0,11.6599998474,7.71000003815,2.09999990463,12.8000001907
"2003-12-03 14:00:00",8.22999954224,0.151999995112,98.5,11.5900001526,7.69000005722,2.20000004768,12.7100000381
"2003-12-03 15:00:00",8.14999961853,0.155000001192,97.9000015259,11.5500001907,7.71000003815,1.89999997616,12.5900001526
"2003-12-03 16:00:00",8.03999996185,0.155000001192,97.4000015259,11.5200004578,7.69000005722,1.79999995232,12.5500001907
"2003-12-03 17:00:00",7.98000001907,0.303000003099,96.5,11.4300003052,7.71999979019,1.79999995232,12.5200004578
"2003-12-03 18:00:00",7.98999977112,0.187000006437,96.0,11.3599996567,7.69999980927,2.5,12.5
"2003-12-03 19:00:00",7.94000005722,0.172000005841,95.6999969482,11.3500003815,7.69999980927,2.29999995232,12.4899997711
"2003-12-03 20:00:00",7.78999996185,0.177000001073,95.5999984741,11.3699998856,7.71000003815,3.70000004768,12.4600000381
"2003-12-03 21:00:00",7.65000009537,0.0989999994636,95.5,11.3999996185,7.71999979019,6.69999980927,12.4399995804
"2003-12-03 22:00:00",7.53999996185,0.0260000005364,95.4000015259,11.4300003052,7.73000001907,7.59999990463,12.4200000763
"2003-12-03 23:00:00",7.46000003815,0.185000002384,95.3000030518,11.4399995804,7.71999979019,8.10000038147,12.3999996185
"2003-12-04 00:00:00",7.34999990463,0.180000007153,95.3000030518,11.4600000381,7.71999979019,8.19999980927,12.3800001144
"2003-12-04 01:00:00",7.30000019073,0.00700000021607,95.4000015259,11.5,7.71000003815,7.90000009537,12.3500003815
"2003-12-04 02:00:00",7.21000003815,0.00499999988824,95.4000015259,11.5200004578,7.73999977112,6.5,12.3100004196
"2003-12-04 03:00:00",7.09999990463,0.00499999988824,95.5,11.5699996948,7.71999979019,5.69999980927,12.2700004578
"2003-12-04 04:00:00",7.0,0.00600000005215,95.5999984741,11.6099996567,7.73999977112,3.90000009537,12.2399997711
"2003-12-04 05:00:00",6.80999994278,0.0130000002682,96.0,11.7100000381,7.71999979019,3.59999990463,12.220000267
"2003-12-04 06:00:00",6.78999996185,0.0320000015199,96.0,11.720000267,7.73000001907,3.79999995232,12.2100000381
"2003-12-04 07:00:00",6.71000003815,0.20000000298,95.0999984741,11.6199998856,7.75,4.59999990463,12.1999998093
"2003-12-04 08:00:00",6.65999984741,0.209999993443,94.1999969482,11.529999733,7.73000001907,7.5,12.1899995804
"2003-12-04 09:00:00",6.88999986649,0.344999998808,96.0,11.6800003052,7.73999977112,6.19999980927,12.1800003052
"2003-12-04 10:00:00",7.40999984741,0.310000002384,94.3000030518,11.3199996948,7.75,6.0,12.2600002289
"2003-12-04 11:00:00",7.78999996185,0.282000005245,92.1999969482,10.970000267,7.69999980927,8.0,12.6999998093
"2003-12-04 12:00:00",7.86999988556,0.17499999702,92.9000015259,11.029999733,7.63000011444,8.10000038147,12.5399999619
"2003-12-04 13:00:00",7.88999986649,0.153999999166,92.0,10.9200000763,7.61000013351,8.89999961853,12.5100002289
"2003-12-04 14:00:00",7.94000005722,0.149000003934,90.1999969482,10.6999998093,7.57999992371,14.0,12.3999996185
"2003-12-04 15:00:00",7.92999982834,0.261000007391,88.4000015259,10.4799995422,7.51999998093,30.6000003815,12.3599996567
"2003-12-04 16:00:00",8.52000045776,0.259999990463,88.5,10.3400001526,7.5,33.0,12.2399997711
"2003-12-04 17:00:00",8.80000019073,0.248999997973,87.9000015259,10.1999998093,7.46999979019,35.0,12.1999998093
"2003-12-04 18:00:00",8.55000019073,0.261000007391,87.6999969482,10.2399997711,7.44000005722,29.6000003815,12.1899995804
"2003-12-04 19:00:00",9.02999973297,0.229000002146,89.3000030518,10.3000001907,7.42999982834,133.699996948,12.1800003052
"2003-12-04 20:00:00",9.28999996185,0.123999997973,94.0,10.7899999619,7.42999982834,312.100006104,12.1800003052
"2003-12-04 21:00:00",8.02999973297,0.0740000009537,97.0,11.4799995422,7.42999982834,321.799987793,12.1800003052
"2003-12-04 22:00:00",6.42999982834,0.0489999987185,99.5999984741,12.2700004578,7.42999982834,187.399993896,12.1700000763
"2003-12-04 23:00:00",6.34000015259,0.0560000017285,98.5999984741,12.1700000763,7.28000020981,189.5,12.1599998474
"2003-12-05 00:00:00",7.25,0.0879999995232,97.6999969482,11.779999733,7.26999998093,89.1999969482,12.1599998474
"2003-12-05 01:00:00",7.19999980927,0.0869999974966,96.9000015259,11.7100000381,7.28999996185,54.2999992371,12.1499996185
"2003-12-05 02:00:00",7.80999994278,0.0960000008345,96.0,11.4200000763,7.26000022888,50.2999992371,12.1499996185
"2003-12-05 03:00:00",8.14000034332,0.11400000006,94.1999969482,11.1099996567,7.25,45.5,12.1400003433
"2003-12-05 04:00:00",8.10999965668,0.115000002086,93.4000015259,11.029999733,7.23999977112,38.7999992371,12.1400003433
"2003-12-05 05:00:00",8.10000038147,0.129999995232,92.8000030518,10.9499998093,7.21999979019,35.5999984741,12.1300001144
"2003-12-05 06:00:00",8.11999988556,0.145999997854,92.1999969482,10.8800001144,7.23000001907,31.1000003815,12.1300001144
"2003-12-05 07:00:00",8.11999988556,0.159999996424,91.8000030518,10.8400001526,7.25,30.7999992371,12.1199998856
"2003-12-05 08:00:00",8.10000038147,0.171000003815,91.1999969482,10.779999733,7.28999996185,27.0,12.1199998856
"2003-12-05 09:00:00",8.18000030518,0.186000004411,92.3000030518,10.8800001144,7.30000019073,24.6000003815,12.1400003433
"2003-12-05 10:00:00",8.31999969482,0.202999994159,93.3000030518,10.9499998093,7.34000015259,21.6000003815,12.1800003052
"2003-12-05 11:00:00",8.61999988556,0.224000006914,94.3000030518,11.0,7.38000011444,18.7000007629,12.4399995804
"2003-12-05 12:00:00",9.01000022888,0.241999998689,94.5999984741,10.9300003052,7.44000005722,30.0,12.4600000381
"2003-12-05 13:00:00",9.18999958038,0.246000006795,93.5999984741,10.7600002289,7.5,67.6999969482,12.3800001144
"2003-12-05 14:00:00",9.21000003815,0.245000004768,92.6999969482,10.6599998474,7.51999998093,66.5999984741,12.3699998856
"2003-12-05 15:00:00",9.15999984741,0.146999999881,92.5999984741,10.6599998474,7.51999998093,61.4000015259,12.2700004578
"2003-12-05 16:00:00",9.07999992371,0.131999999285,92.0999984741,10.6300001144,7.53999996185,53.0,12.1800003052
"2003-12-05 17:00:00",8.94999980927,0.128999993205,91.3000030518,10.5600004196,7.53999996185,49.2000007629,12.1400003433
"2003-12-05 18:00:00",8.80000019073,0.134000003338,90.9000015259,10.5500001907,7.53999996185,45.7000007629,12.1300001144
"2003-12-05 19:00:00",8.64000034332,0.135000005364,90.6999969482,10.5799999237,7.55000019073,46.4000015259,12.1199998856
"2003-12-05 20:00:00",8.53999996185,0.136000007391,90.9000015259,10.6199998856,7.55000019073,48.5,12.1199998856
"2003-12-05 21:00:00",8.43000030518,0.138999998569,91.1999969482,10.6800003052,7.55000019073,54.4000015259,12.1199998856
"2003-12-05 22:00:00",8.31000041962,0.143000006676,91.4000015259,10.7399997711,7.57000017166,55.2000007629,12.1099996567
"2003-12-05 23:00:00",8.26000022888,0.145999997854,91.8000030518,10.8000001907,7.59000015259,47.7000007629,12.1000003815
"2003-12-06 00:00:00",8.15999984741,0.148000001907,91.8000030518,10.8299999237,7.59999990463,32.2000007629,12.1000003815
"2003-12-06 01:00:00",8.10000038147,0.150999993086,92.0999984741,10.8800001144,7.59999990463,24.5,12.1000003815
"2003-12-06 02:00:00",8.03999996185,0.151999995112,92.3000030518,10.9099998474,7.63000011444,18.1000003815,12.0900001526
"2003-12-06 03:00:00",8.01000022888,0.153999999166,92.5,10.9399995804,7.63000011444,14.1999998093,12.0799999237
"2003-12-06 04:00:00",7.98000001907,0.157000005245,92.5999984741,10.970000267,7.63999986649,10.6999998093,12.0799999237
"2003-12-06 05:00:00",7.94999980927,0.158999994397,92.5999984741,10.9799995422,7.65000009537,9.39999961853,12.0799999237
"2003-12-06 06:00:00",7.90000009537,0.159999996424,92.8000030518,11.0100002289,7.65999984741,8.80000019073,12.0699996948
"2003-12-06 07:00:00",7.82999992371,0.159999996424,92.9000015259,11.0399999619,7.65000009537,7.0,12.0699996948
"2003-12-06 08:00:00",7.67000007629,0.303000003099,92.3000030518,11.0100002289,7.65000009537,7.30000019073,12.0699996948
"2003-12-06 09:00:00",7.84999990463,0.300000011921,94.1999969482,11.1899995804,7.65999984741,6.80000019073,12.220000267
"2003-12-06 10:00:00",8.40999984741,0.287000000477,95.5999984741,11.1999998093,7.71000003815,4.69999980927,12.7700004578
"2003-12-06 11:00:00",8.94999980927,0.146999999881,96.5,11.1599998474,7.69999980927,4.19999980927,12.8199996948
"2003-12-06 12:00:00",9.32999992371,0.145999997854,96.8000030518,11.0900001526,7.69999980927,4.09999990463,13.3500003815
"2003-12-06 13:00:00",9.51000022888,0.149000003934,96.5999984741,11.0200004578,7.69000005722,4.19999980927,12.970000267
"2003-12-06 14:00:00",9.68000030518,0.150999993086,96.1999969482,10.9399995804,7.65999984741,5.90000009537,12.6599998474
"2003-12-06 15:00:00",9.64000034332,0.151999995112,95.5,10.8699998856,7.67999982834,23.2000007629,12.6599998474
"2003-12-06 16:00:00",9.39999961853,0.153999999166,94.5,10.8100004196,7.69000005722,86.0999984741,12.6400003433
"2003-12-06 17:00:00",9.23999977112,0.155000001192,93.5999984741,10.7600002289,7.69000005722,159.899993896,12.5200004578
"2003-12-06 18:00:00",8.84000015259,0.162000000477,93.3000030518,10.8199996948,7.69000005722,136.600006104,12.4899997711
"2003-12-06 19:00:00",8.67000007629,0.165999993682,93.5,10.8900003433,7.69999980927,106.800003052,12.4499998093
"2003-12-06 20:00:00",8.36999988556,0.16400000453,93.5,10.970000267,7.71999979019,71.5,12.4300003052
"2003-12-06 21:00:00",8.13000011444,0.162000000477,93.5,11.029999733,7.71999979019,41.5999984741,12.4099998474
"2003-12-06 22:00:00",7.86000013351,0.0780000016093,93.5,11.1000003815,7.73000001907,24.7999992371,12.3900003433
"2003-12-06 23:00:00",7.63999986649,0.125,93.4000015259,11.1499996185,7.71999979019,18.2000007629,12.3599996567
"2003-12-07 00:00:00",7.34999990463,0.0280000008643,93.1999969482,11.220000267,7.71999979019,18.2000007629,12.3400001526
"2003-12-07 01:00:00",7.05000019073,0.0370000004768,93.3000030518,11.3100004196,7.73000001907,18.6000003815,12.3199996948
"2003-12-07 02:00:00",6.82999992371,0.082999996841,93.4000015259,11.3800001144,7.71000003815,43.5,12.3100004196
"2003-12-07 03:00:00",6.63999986649,0.0520000010729,93.9000015259,11.5,7.71000003815,64.0999984741,12.2899999619
"2003-12-07 04:00:00",6.44000005722,0.119000002742,94.3000030518,11.6000003815,7.67000007629,72.0,12.279999733
"2003-12-07 05:00:00",6.19000005722,0.035000000149,94.1999969482,11.6700000763,7.69999980927,53.0,12.2700004578
"2003-12-07 06:00:00",6.03000020981,0.0329999998212,94.4000015259,11.7399997711,7.69000005722,31.5,12.25
"2003-12-07 07:00:00",5.84000015259,0.0379999987781,94.6999969482,11.8299999237,7.67000007629,19.7999992371,12.2399997711
"2003-12-07 08:00:00",5.67999982834,0.0329999998212,94.9000015259,11.9099998474,7.69999980927,13.3999996185,12.2299995422
"2003-12-07 09:00:00",5.65000009537,0.0399999991059,95.6999969482,12.0200004578,7.71000003815,10.6000003815,12.3400001526
"2003-12-07 10:00:00",6.01000022888,0.0399999991059,96.9000015259,12.0600004196,7.71000003815,8.89999961853,12.779999733
"2003-12-07 11:00:00",6.28000020981,0.165000006557,97.4000015259,12.029999733,7.71000003815,8.0,12.6300001144
"2003-12-07 12:00:00",7.11999988556,0.0450000017881,98.3000030518,11.8900003433,7.73000001907,7.0,13.5799999237
"2003-12-07 13:00:00",7.69000005722,0.0219999998808,98.0999984741,11.6999998093,7.73000001907,6.59999990463,13.1099996567
"2003-12-07 14:00:00",7.92000007629,0.171000003815,97.4000015259,11.5500001907,7.71999979019,6.69999980927,12.6999998093
"2003-12-07 15:00:00",8.11999988556,0.166999995708,97.0,11.4499998093,7.73000001907,6.69999980927,12.5799999237
"2003-12-07 16:00:00",8.10999965668,0.162000000477,96.1999969482,11.3599996567,7.71999979019,6.90000009537,12.6599998474
"2003-12-07 17:00:00",8.11999988556,0.197999998927,95.6999969482,11.2899999619,7.71999979019,8.39999961853,12.5200004578
"2003-12-07 18:00:00",7.90999984741,0.165000006557,95.0,11.2700004578,7.71000003815,8.19999980927,12.4899997711
"2003-12-07 19:00:00",7.63999986649,0.158999994397,94.3000030518,11.2700004578,7.71999979019,7.90000009537,12.4499998093
"2003-12-07 20:00:00",7.34999990463,0.0149999996647,94.0999984741,11.3199996948,7.71000003815,8.39999961853,12.4200000763
"2003-12-07 21:00:00",7.09999990463,0.0299999993294,93.9000015259,11.3699998856,7.71000003815,8.5,12.3999996185
"2003-12-07 22:00:00",6.86999988556,0.0170000009239,93.9000015259,11.4399995804,7.69999980927,10.6999998093,12.3800001144
"2003-12-07 23:00:00",6.55999994278,0.00899999961257,93.6999969482,11.5100002289,7.67999982834,11.8000001907,12.3599996567
"2003-12-08 00:00:00",6.36000013351,0.00899999961257,93.9000015259,11.5900001526,7.65999984741,12.8000001907,12.3400001526
"2003-12-08 01:00:00",6.17000007629,0.00800000037998,93.3000030518,11.5699996948,7.67000007629,12.1999998093,12.3199996948
"2003-12-08 02:00:00",5.88999986649,0.00700000021607,94.6999969482,11.8299999237,7.67000007629,10.8999996185,12.3000001907
"2003-12-08 03:00:00",5.75,0.00899999961257,95.0,11.9099998474,7.65000009537,9.69999980927,12.2899999619
"2003-12-08 04:00:00",5.57999992371,0.00800000037998,95.0,11.9499998093,7.65999984741,9.69999980927,12.279999733
"2003-12-08 05:00:00",5.36000013351,0.00999999977648,95.1999969482,12.0500001907,7.63999986649,7.0,12.2600002289
"2003-12-08 06:00:00",5.13999986649,0.00700000021607,95.3000030518,12.1300001144,7.65000009537,6.19999980927,12.2399997711
"2003-12-08 07:00:00",4.90999984741,0.00700000021607,95.0999984741,12.1700000763,7.63999986649,5.5,12.2299995422
"2003-12-08 08:00:00",4.78000020981,0.00600000005215,95.3000030518,12.25,7.67000007629,5.09999990463,12.2100000381
"2003-12-08 09:00:00",4.90000009537,0.194999992847,96.3000030518,12.3299999237,7.73999977112,6.69999980927,12.3000001907
"2003-12-08 10:00:00",5.30999994278,0.171000003815,97.8000030518,12.3800001144,7.73999977112,6.5,12.8900003433
"2003-12-08 11:00:00",5.82000017166,0.168999999762,98.5999984741,12.3199996948,7.76000022888,7.5,12.6300001144
"2003-12-08 12:00:00",6.61999988556,0.173999994993,99.4000015259,12.1800003052,7.76999998093,6.40000009537,13.6499996185
"2003-12-08 13:00:00",7.19000005722,0.171000003815,99.3000030518,12.0,7.78000020981,5.69999980927,13.1499996185
"2003-12-08 14:00:00",7.53999996185,0.162000000477,98.5999984741,11.8000001907,7.75,6.30000019073,12.7299995422
"2003-12-08 15:00:00",7.78000020981,0.0149999996647,97.8000030518,11.6499996185,7.76000022888,9.19999980927,12.6000003815
"2003-12-08 16:00:00",7.88999986649,0.070000000298,97.0,11.5200004578,7.73999977112,13.8999996185,12.6499996185
"2003-12-08 17:00:00",7.80000019073,0.172000005841,96.4000015259,11.4600000381,7.73999977112,14.8999996185,12.5200004578
"2003-12-08 18:00:00",7.59999990463,0.0759999975562,95.6999969482,11.4399995804,7.73000001907,17.5,12.4799995422
"2003-12-08 19:00:00",7.44000005722,0.171000003815,95.3000030518,11.4300003052,7.71999979019,28.7999992371,12.4499998093
"2003-12-08 20:00:00",7.69999980927,0.32800000906,94.5999984741,11.279999733,7.73000001907,45.4000015259,12.4300003052
"2003-12-08 21:00:00",8.47000026703,1.19099998474,94.0999984741,10.970000267,7.67999982834,66.9000015259,12.3999996185
"2003-12-08 22:00:00",11.25,4.03499984741,90.6999969482,9.81000041962,7.78000020981,25.1000003815,12.3800001144
"2003-12-08 23:00:00",12.9200000763,4.52299976349,89.0,9.26000022888,7.84999990463,13.3999996185,12.3599996567
"2003-12-09 00:00:00",13.4600000381,4.52600002289,89.0999984741,9.14999961853,7.88000011444,10.1000003815,12.3400001526
"2003-12-09 01:00:00",13.6599998474,4.63500022888,88.6999969482,9.06999969482,7.90000009537,7.0,12.3199996948
"2003-12-09 02:00:00",13.5900001526,4.09800004959,88.8000030518,9.10999965668,7.90999984741,5.0,12.3000001907
"2003-12-09 03:00:00",13.2700004578,4.01599979401,89.3000030518,9.22999954224,7.92000007629,6.19999980927,12.2899999619
"2003-12-09 04:00:00",12.6199998856,2.2539999485,89.8000030518,9.47999954224,7.90999984741,6.90000009537,12.2700004578
"2003-12-09 05:00:00",11.6499996185,1.75199997425,89.8000030518,9.71000003815,7.90000009537,5.19999980927,12.25
"2003-12-09 06:00:00",10.7299995422,0.0540000014007,89.8000030518,9.97000026703,7.88999986649,4.69999980927,12.2299995422
"2003-12-09 07:00:00",9.84000015259,0.0430000014603,90.4000015259,10.25,7.88999986649,3.90000009537,12.2100000381
"2003-12-09 08:00:00",9.27999973297,0.0410000011325,90.3000030518,10.3699998856,7.90000009537,3.40000009537,12.2100000381
"2003-12-09 09:00:00",9.10999965668,0.111000001431,93.0,10.7100000381,7.90000009537,4.09999990463,12.3900003433
"2003-12-09 10:00:00",9.18999958038,1.36199998856,94.9000015259,10.8699998856,7.90000009537,5.5,12.9600000381